| time (UTC) | temp F | wind direction | speed MPH | gust MPH | rain 1hr in | rain 24hr in | rain mn in | humidity % | barometer mb |
| 20260906101546 | 71 | 133 | 0.0 | 4.0 | 0.00 | 0.00 | 0.00 | 87 | 1016.2 |
| 20260906100043 | 72 | 90 | 1.0 | 4.0 | 0.00 | 0.00 | 0.00 | 86 | 1016.1 |
| 20260906094542 | 72 | 90 | 0.0 | 1.0 | 0.00 | 0.00 | 0.00 | 87 | 1016.3 |
| 20260906093049 | 72 | 87 | 0.0 | 3.0 | 0.00 | 0.00 | 0.00 | 87 | 1016.1 |
| 20260906091540 | 72 | 104 | 0.0 | 2.0 | 0.00 | 0.00 | 0.00 | 87 | 1016.0 |
| 20260906090039 | 72 | 88 | 1.0 | 2.0 | 0.00 | 0.00 | 0.00 | 87 | 1016.0 |
| 20260906084539 | 72 | 97 | 0.0 | 3.0 | 0.00 | 0.00 | 0.00 | 86 | 1015.9 |
| 20260906083037 | 72 | 102 | 0.0 | 2.0 | 0.00 | 0.00 | 0.00 | 87 | 1016.0 |
| 20260906081549 | 72 | 95 | 0.0 | 1.0 | 0.00 | 0.00 | 0.00 | 87 | 1016.1 |
| 20260906080036 | 72 | 92 | 0.0 | 1.0 | 0.00 | 0.00 | 0.00 | 88 | 1016.2 |
| 20260906074535 | 73 | 94 | 0.0 | 1.0 | 0.00 | 0.00 | 0.00 | 87 | 1016.2 |
| 20260906073047 | 73 | 96 | 0.0 | 2.0 | 0.00 | 0.00 | 0.00 | 87 | 1016.1 |
| 20260906071532 | 73 | 46 | 0.0 | 3.0 | 0.00 | 0.00 | 0.00 | 87 | 1016.0 |
| 20260906070038 | 73 | 95 | 0.0 | 5.0 | 0.00 | 0.00 | 0.00 | 87 | 1016.0 |
| 20260906064530 | 73 | 22 | 0.0 | 3.0 | 0.00 | 0.00 | 0.00 | 88 | 1016.2 |
| 20260906063030 | 73 | 82 | 0.0 | 3.0 | 0.00 | 0.00 | 0.00 | 88 | 1016.2 |
| 20260906061529 | 73 | 12 | 1.0 | 5.0 | 0.00 | 0.00 | 0.00 | 88 | 1016.2 |
| 20260906060027 | 73 | 36 | 0.0 | 3.0 | 0.00 | 0.00 | 0.00 | 88 | 1016.1 |
| 20260906054525 | 73 | 70 | 1.0 | 5.0 | 0.00 | 0.00 | 0.00 | 88 | 1015.8 |
| 20260906053033 | 73 | 87 | 1.0 | 9.0 | 0.00 | 0.00 | 0.00 | 88 | 1015.7 |
| 20260906051523 | 73 | 86 | 2.0 | 6.0 | 0.00 | 0.00 | 0.00 | 87 | 1015.5 |
| 20260906050021 | 73 | 20 | 1.0 | 10.0 | 0.00 | 0.00 | 0.00 | 87 | 1015.5 |
| 20260906044519 | 73 | 97 | 4.0 | 10.0 | 0.00 | 0.00 | 0.00 | 87 | 1015.2 |
| 20260906043024 | 73 | 102 | 3.0 | 7.0 | 0.00 | 0.00 | 0.00 | 88 | 1015.1 |
| 20260906041518 | 73 | 75 | 2.0 | 12.0 | 0.00 | 0.00 | 0.00 | 88 | 1015.2 |
| 20260906040017 | 73 | 85 | 1.0 | 7.0 | 0.00 | 0.00 | 0.00 | 88 | 1015.0 |
| 20260906034523 | 73 | 50 | 4.0 | 14.0 | 0.00 | 0.00 | 0.00 | 88 | 1015.0 |
| 20260906033015 | 74 | 74 | 3.0 | 14.0 | 0.00 | 0.00 | 0.00 | 87 | 1014.8 |
| 20260906031514 | 73 | 92 | 2.0 | 13.0 | 0.00 | 0.00 | 0.00 | 87 | 1014.8 |
| 20260906030013 | 74 | 49 | 2.0 | 11.0 | 0.00 | 0.00 | 0.00 | 87 | 1014.7 |
| 20260906024512 | 74 | 36 | 4.0 | 13.0 | 0.00 | 0.00 | 0.00 | 87 | 1015.0 |
| 20260906023012 | 74 | 46 | 5.0 | 12.0 | 0.00 | 0.00 | 0.00 | 87 | 1015.0 |
| 20260906021613 | 74 | 25 | 2.0 | 11.0 | 0.00 | 0.00 | 0.00 | 87 | 1015.1 |
| 20260906020010 | 74 | 7 | 6.0 | 14.0 | 0.00 | 0.00 | 0.00 | 86 | 1015.0 |
| 20260906014509 | 74 | 359 | 2.0 | 9.0 | 0.00 | 0.00 | 0.00 | 86 | 1015.0 |
| 20260906013007 | 74 | 47 | 5.0 | 10.0 | 0.00 | 0.00 | 0.00 | 86 | 1014.7 |
| 20260906011505 | 73 | 336 | 2.0 | 13.0 | 0.00 | 0.00 | 0.00 | 85 | 1014.7 |
| 20260906010004 | 73 | 21 | 5.0 | 10.0 | 0.00 | 0.00 | 0.00 | 86 | 1014.4 |
| 20260906004503 | 73 | 49 | 6.0 | 12.0 | 0.00 | 0.00 | 0.00 | 85 | 1014.2 |
| 20260906003002 | 73 | 76 | 8.0 | 13.0 | 0.00 | 0.00 | 0.00 | 85 | 1014.2 |
| 20260906001559 | 73 | 27 | 7.0 | 15.0 | 0.00 | 0.00 | 0.00 | 85 | 1014.3 |
| 20260906000107 | 74 | 13 | 4.0 | 11.0 | 0.00 | 0.00 | 0.00 | 84 | 1014.2 |
| 20260905234557 | 74 | 19 | 6.0 | 14.0 | 0.00 | 0.00 | 0.00 | 84 | 1014.2 |
| 20260905233054 | 75 | 64 | 3.0 | 13.0 | 0.00 | 0.00 | 0.00 | 85 | 1014.0 |
| 20260905231548 | 75 | 2 | 4.0 | 18.0 | 0.00 | 0.00 | 0.00 | 84 | 1014.0 |
| 20260905230048 | 76 | 357 | 6.0 | 15.0 | 0.00 | 0.00 | 0.00 | 82 | 1013.7 |
| 20260905224552 | 77 | 297 | 6.0 | 14.0 | 0.00 | 0.00 | 0.00 | 81 | 1013.7 |
| 20260905223042 | 76 | 345 | 4.0 | 13.0 | 0.00 | 0.00 | 0.00 | 82 | 1013.7 |
| 20260905221543 | 77 | 6 | 5.0 | 13.0 | 0.00 | 0.00 | 0.00 | 82 | 1013.7 |
| 20260905220040 | 76 | 26 | 2.0 | 10.0 | 0.00 | 0.00 | 0.00 | 83 | 1013.8 |
| 20260905214539 | 76 | 324 | 5.0 | 15.0 | 0.00 | 0.00 | 0.00 | 83 | 1013.7 |
| 20260905213037 | 77 | 309 | 5.0 | 16.0 | 0.00 | 0.00 | 0.00 | 83 | 1013.6 |
| 20260905211536 | 77 | 356 | 6.0 | 13.0 | 0.00 | 0.00 | 0.00 | 82 | 1013.5 |
| 20260905210034 | 78 | 32 | 7.0 | 12.0 | 0.00 | 0.00 | 0.00 | 81 | 1013.6 |
| 20260905204533 | 78 | 359 | 7.0 | 13.0 | 0.00 | 0.00 | 0.00 | 80 | 1013.5 |
| 20260905203031 | 79 | 13 | 4.0 | 15.0 | 0.00 | 0.00 | 0.00 | 80 | 1013.6 |
| 20260905201534 | 79 | 340 | 7.0 | 14.0 | 0.00 | 0.00 | 0.00 | 78 | 1013.6 |
| 20260905200044 | 79 | 334 | 5.0 | 15.0 | 0.00 | 0.00 | 0.00 | 79 | 1013.5 |
| 20260905194528 | 79 | 31 | 7.0 | 13.0 | 0.00 | 0.00 | 0.00 | 79 | 1013.6 |
| 20260905193029 | 81 | 333 | 4.0 | 14.0 | 0.00 | 0.00 | 0.00 | 77 | 1013.7 |
| 20260905191534 | 80 | 27 | 6.0 | 14.0 | 0.00 | 0.00 | 0.00 | 78 | 1013.9 |
| 20260905190042 | 81 | 304 | 6.0 | 13.0 | 0.00 | 0.00 | 0.00 | 77 | 1013.7 |
| 20260905184524 | 81 | 32 | 6.0 | 13.0 | 0.00 | 0.00 | 0.00 | 77 | 1013.8 |
| 20260905183023 | 81 | 314 | 4.0 | 13.0 | 0.00 | 0.00 | 0.00 | 78 | 1013.6 |
| 20260905181526 | 82 | 355 | 5.0 | 13.0 | 0.00 | 0.00 | 0.00 | 78 | 1013.5 |
| 20260905180022 | 82 | 352 | 5.0 | 13.0 | 0.00 | 0.00 | 0.00 | 76 | 1013.6 |
| 20260905174520 | 82 | 354 | 7.0 | 12.0 | 0.00 | 0.00 | 0.00 | 76 | 1013.6 |
| 20260905173021 | 83 | 46 | 4.0 | 12.0 | 0.00 | 0.00 | 0.00 | 75 | 1013.5 |
| 20260905171519 | 83 | 24 | 6.0 | 13.0 | 0.00 | 0.00 | 0.00 | 74 | 1013.5 |
| 20260905170019 | 83 | 4 | 5.0 | 10.0 | 0.00 | 0.00 | 0.00 | 74 | 1013.6 |
| 20260905164524 | 83 | 40 | 4.0 | 10.0 | 0.00 | 0.00 | 0.00 | 76 | 1013.6 |
| 20260905163016 | 83 | 349 | 1.0 | 11.0 | 0.00 | 0.00 | 0.00 | 76 | 1013.6 |
| 20260905161515 | 83 | 18 | 3.0 | 10.0 | 0.00 | 0.00 | 0.00 | 77 | 1013.6 |
| 20260905160012 | 82 | 324 | 5.0 | 8.0 | 0.00 | 0.00 | 0.00 | 79 | 1013.5 |
| 20260905154508 | 81 | 84 | 4.0 | 11.0 | 0.00 | 0.00 | 0.00 | 82 | 1013.3 |
| 20260905153007 | 81 | 1 | 5.0 | 9.0 | 0.00 | 0.00 | 0.00 | 83 | 1013.3 |
| 20260905151507 | 80 | 111 | 4.0 | 14.0 | 0.00 | 0.00 | 0.00 | 83 | 1013.3 |
| 20260905150005 | 80 | 9 | 5.0 | 11.0 | 0.00 | 0.00 | 0.00 | 83 | 1013.3 |
| 20260905144502 | 80 | 354 | 3.0 | 10.0 | 0.00 | 0.00 | 0.00 | 83 | 1013.2 |
| 20260905143058 | 80 | 19 | 4.0 | 12.0 | 0.00 | 0.00 | 0.00 | 83 | 1012.8 |
| 20260905141656 | 79 | 320 | 4.0 | 9.0 | 0.00 | 0.00 | 0.00 | 84 | 1012.8 |
| 20260905140105 | 79 | 20 | 4.0 | 9.0 | 0.00 | 0.00 | 0.00 | 85 | 1012.9 |
| 20260905134555 | 80 | 345 | 0.0 | 6.0 | 0.00 | 0.00 | 0.00 | 86 | 1013.0 |
| 20260905133053 | 79 | 4 | 3.0 | 8.0 | 0.00 | 0.00 | 0.00 | 85 | 1012.8 |
| 20260905131604 | 78 | 13 | 1.0 | 6.0 | 0.00 | 0.00 | 0.00 | 87 | 1012.6 |
| 20260905130052 | 78 | 310 | 1.0 | 6.0 | 0.00 | 0.00 | 0.00 | 88 | 1012.5 |
| 20260905124548 | 78 | 8 | 2.0 | 5.0 | 0.00 | 0.00 | 0.00 | 88 | 1012.3 |
| 20260905123046 | 77 | 21 | 2.0 | 6.0 | 0.00 | 0.00 | 0.00 | 89 | 1012.3 |
| 20260905121550 | 77 | 352 | 0.0 | 3.0 | 0.00 | 0.00 | 0.00 | 89 | 1012.0 |
| 20260905120044 | 77 | 26 | 1.0 | 3.0 | 0.00 | 0.00 | 0.00 | 88 | 1011.7 |
| 20260905114542 | 76 | 351 | 0.0 | 2.0 | 0.00 | 0.00 | 0.00 | 90 | 1011.4 |
| 20260905113041 | 76 | 13 | 0.0 | 0.0 | 0.00 | 0.00 | 0.00 | 90 | 1011.5 |
| 20260905111601 | 76 | 13 | 0.0 | 0.0 | 0.00 | 0.00 | 0.00 | 90 | 1011.2 |
| 20260905110039 | 76 | 13 | 0.0 | 1.0 | 0.00 | 0.00 | 0.00 | 90 | 1011.1 |
| 20260905104537 | 77 | 13 | 0.0 | 1.0 | 0.00 | 0.00 | 0.00 | 89 | 1011.1 |
| 20260905103037 | 77 | 20 | 0.0 | 0.0 | 0.00 | 0.00 | 0.00 | 89 | 1011.3 |